Location: A�t �Alizem
(31.2076°N, 8.7872°W)
Time: 19:36:44
(UTC+00:00)

deb Explorer IX - Pass Details

Date: 26 June 2021
Orbit: 541 x 1234 km, 38.9° (Epoch: 01 August)

Event Time Altitude Azimuth Distance (km) Brightness Sun altitude
Rises 22:24:10 0° 250° (WSW) 2,693 ? -26.7°
Reaches altitude 10° 22:26:19 10° 253° (WSW) 1,829 ? -27.0°
Enters shadow 22:27:28 19° 255° (WSW) 1,385 ? -27.1°
